Regional Weather Roundup
Issued by NWS

Home | Current Version | Previous Version | Graphics & Text | Print | Product List | Glossary On
Versions: 1 2 3 4 5 6 7 8 9 10 11 12 13 14 15 16 17 18 19 20 21 22 23 24 25 26 27 28 29 30 31 32 33 34 35 36 37 38 39 40 41 42 43 44 45 46 47 48 49 50
000
ASUS43 KLOT 250902
RWRIL

ILLINOIS REGIONAL WEATHER ROUNDUP
NATIONAL WEATHER SERVICE CHICAGO/ROMEOVILLE IL
400 AM CDT SAT APR 25 2015

NOTE: "FAIR" INDICATES FEW OR NO CLOUDS BELOW 12,000 FEET WITH NO
SIGNIFICANT WEATHER AND/OR OBSTRUCTIONS TO VISIBILITY.

* THESE STATIONS ARE NOT UNDER NWS QUALITY CONTROL. THEY ALSO MAY NOT
  REPORT WEATHER SUCH AS PRECIPITATION OR FOG.

ILZ001-002-007-009-015-016-024-251000-
NORTHWEST ILLINOIS

CITY           SKY/WX    TMP DP  RH WIND       PRES   REMARKS
MOLINE         LGT RAIN  43  40  89 E15       29.72S FOG
STERLING*      CLOUDY    43  37  81 E16       29.75F
$$

ILZ003-004-008-010-011-017-018-251000-
NORTH CENTRAL ILLINOIS

CITY           SKY/WX    TMP DP  RH WIND       PRES   REMARKS
ROCKFORD       CLOUDY    43  36  76 E15G26    29.81F
FREEPORT*      CLOUDY    40  36  84 E13       29.79F
$$

ILZ005-006-012>014-019>023-251000-
NORTHEAST ILLINOIS

CITY           SKY/WX    TMP DP  RH WIND       PRES   REMARKS
CHICAGO-OHARE  CLOUDY    43  38  82 E13       29.81F
CHICAGO-MIDWAY CLOUDY    46  40  79 E16G24    29.81F
AURORA         CLOUDY    44  38  79 E18G24    29.77F
LANSING*       CLOUDY    45  38  77 E8        29.83R
WAUKEGAN       CLOUDY    39  37  92 E15       29.84F WCI  31
DUPAGE AIRPORT CLOUDY    43  38  82 E15       29.79F
WHEELING       CLOUDY    42  37  82 E7        29.83F
NORTHERLY ISL    N/A     43  39  86 NE10        N/A
$$

LMZ740>746-251000-
SOUTHERN LAKE MICHIGAN

STATION/POSITION SKY/WX   TEMP    WIND        PRES    VSBY  WAVE
                          AIR SEA DIR/SP/G                  HT/PER
                          (F)     (DEG/KT/KT) (MB)    (MI)  (FT/S)
HARRISON CRIB              41      70/ 21/ 23   N/A
BURNHAM HARBOR             43      70/ 14/ 18   N/A
CALUMET HARBOR             44      60/ 15/ 19   N/A
BURNS HARBOR               46      90/ 15/ 20 1010.5F
MICHIGAN CITY              44      60/ 16/ 19   N/A
MICHIGAN CITY 6N           45 44  100/ 16/ 19   N/A           3/ 4
$$

ILZ025>027-034>036-040-047-049-050-058-095>099-251000-
WEST-CENTRAL ILLINOIS

CITY           SKY/WX    TMP DP  RH WIND       PRES   REMARKS
QUINCY         LGT RAIN  52  48  86 NE6       29.60F
MACOMB*        CLOUDY    52  46  80 SE15      29.67S
$$

ILZ028>032-037-038-041>044-048-051>054-059>061-251000-
CENTRAL ILLINOIS

CITY           SKY/WX    TMP DP  RH WIND       PRES   REMARKS
BLOOMINGTON    LGT RAIN  48  45  87 SE8       29.74S
DECATUR        CLOUDY    51  45  79 SE9       29.69F
PEORIA         CLOUDY    49  43  80 E10       29.70F
LINCOLN*       CLOUDY    51  45  80 E9        29.67F
SPRINGFIELD    CLOUDY    52  46  80 SE9       29.66F
TAYLORVILLE    NOT AVBL
$$

ILZ033-039-045-046-055>057-062-063-251000-
EAST-CENTRAL ILLINOIS

CITY           SKY/WX    TMP DP  RH WIND       PRES   REMARKS
CHAMPAIGN      CLOUDY    50  44  80 E10       29.72F
MATTOON        CLOUDY    52  42  69 SE10      29.70F
$$

ILZ079-100>102-251000-
SOUTHWEST ILLINOIS

CITY           SKY/WX    TMP DP  RH WIND       PRES   REMARKS
BELLEVILLE     CLOUDY    54  53  99 SE6       29.63F
CAHOKIA*       CLOUDY    56  52  86 SE6       29.64F
SPARTA*        CLOUDY    55  52  90 SE9       29.66F
$$

ILZ064>066-069>071-074>076-080>082-084>086-088>090-092>094-251000-
SOUTH-CENTRAL ILLINOIS

CITY           SKY/WX    TMP DP  RH WIND       PRES   REMARKS
CARBONDALE     CLOUDY    56  51  84 SE8       29.66F
MT. VERNON     CLOUDY    55  45  67 CALM      29.69F
SALEM*         LGT RAIN  54  47  75 CALM      29.69F
$$

ILZ067-068-072-073-078-083-087-091-251000-
SOUTHEAST ILLINOIS

CITY           SKY/WX    TMP DP  RH WIND       PRES   REMARKS
LAWRENCEVILLE  CLOUDY    54  46  74 E7        29.73F
FLORA*         DRIZZLE   53  44  71 SE6       29.71F
HARRISBURG*    CLOUDY    56  49  78 SE6       29.70F
ROBINSON*      CLOUDY    54  45  70 SE9       29.74F
CARMI*         CLOUDY    55  43  63 E7        29.69F
$$

ABBREVIATIONS USED IN REMARKS
   TC - TEMPERATURE IN CELSIUS
  WCI - WIND CHILL INDEX
   HX - HEAT INDEX
  VSB - VISIBILITY
$$




USA.gov is the U.S. government's official web portal to all federal, state and local government web resources and services.